RH
40 44 47 49 47 51 59 68 76 76 72 76 85 85 87 86 82 79 69 61 53 50 45 43 36 34 29 26 26 26 25 24 22 20 19 17 17 17
42 42 44 46 47 54 62 70 75 81 84 87 91 87 89 85 85 83 73 63 53 50 48 43 37 33 30 30 29 28 26 25 22 20 17 17 17 19
48 53 55 54 54 60 63 70 76 80 86 93 95 87 79 85 87 85 74 64 54 51 49 44 38 34 33 33 31 29 26 25 21 20 18 17 17 17
63 73 56 59 65 60 64 70 72 78 84 97 87 89 73 84 90 81 75 69 56 50 50 43 39 35 35 34 31 30 28 24 21 20 16 15 17 19
72 72 68 64 66 62 65 71 81 86 88 95 87 85 77 82 88 84 73 62 57 57 52 44 40 38 37 35 33 31 26 23 20 17 16 16 18 21
63 62 67 63 62 64 70 77 85 90 95 98 85 84 85 86 84 80 75 65 62 64 53 46 41 40 38 36 33 27 24 22 20 17 16 18 20 21
66 70 62 60 54 60 67 77 83 85 95 93 85 86 88 83 80 80 77 68 67 64 54 46 44 41 40 36 29 26 23 21 18 17 17 19 20 20
61 54 60 56 53 57 67 70 78 81 86 87 83 82 85 82 77 76 76 71 69 64 57 48 45 44 41 32 28 24 22 18 18 19 19 19 19 17
69 65 59 59 57 58 68 67 71 76 73 80 81 80 86 79 79 78 80 79 75 67 57 52 51 47 36 31 27 23 21 20 21 20 20 20 17 13
54 57 61 61 60 57 58 58 63 72 70 79 78 75 71 76 79 83 81 78 74 68 59 57 50 41 35 30 27 23 23 23 22 22 22 18 15 13
48 48 47 57 49 51 60 52 54 58 75 73 81 76 80 85 87 85 82 77 74 67 63 57 44 36 32 28 26 25 25 24 24 23 20 17 15 14
45 52 50 52 61 62 58 55 64 74 84 77 77 82 83 93 94 88 84 84 75 72 68 52 45 38 34 30 30 30 30 29 24 21 19 19 20 21
56 56 56 59 58 65 62 71 74 84 83 83 80 82 91 97 93 90 91 85 74 64 54 50 47 40 35 32 31 31 28 23 21 22 21 20 22 24
57 61 63 65 66 68 73 80 82 83 78 89 96 98 98 93 90 98 90 72 67 62 56 50 42 36 34 32 31 28 26 26 25 24 25 27 30 33
63 68 70 73 71 76 74 72 76 83 88 94 98 96 94 97 98 89 79 74 68 60 51 44 39 35 34 31 28 28 26 28 29 29 29 31 35 41
66 67 75 79 79 76 79 85 82 88 96 97 98 94 98 98 87 80 80 75 65 53 47 42 37 35 30 28 29 30 31 34 36 37 38 41 45 54
73 71 72 79 81 79 83 90 93 97 97 98 97 96 96 94 86 83 75 69 56 50 45 39 35 31 28 28 31 34 37 40 44 47 52 59 61 71
71 76 73 81 82 83 96 97 99 97 97 98 95 94 94 89 81 77 69 60 53 47 39 35 30 28 27 29 34 39 43 46 51 55 64 76 81 86
64 76 80 80 86 86 98 98 98 98 96 97 96 95 89 83 75 67 64 54 45 37 32 29 27 27 27 32 36 40 45 49 57 63 71 84 91 95
58 72 80 82 88 90 96 97 98 99 97 95 96 91 86 80 71 63 53 42 32 28 27 28 27 28 30 34 39 43 47 54 60 66 73 87 95 97
60 66 85 88 91 92 96 97 98 96 94 95 95 89 81 72 64 53 41 32 29 26 23 25 26 28 31 36 39 43 51 60 66 72 76 85 97 97
63 70 87 90 91 94 96 95 95 94 96 96 90 80 71 62 51 42 33 29 28 25 25 26 28 32 36 36 40 47 57 66 72 77 80 81 95 97
64 67 95 98 94 98 95 97 96 96 95 92 81 74 63 50 40 32 29 26 23 25 25 27 30 34 34 37 43 52 63 70 75 81 85 87 85 96